Regional Weather Roundup
Issued by NWS

Home | Current Version | Previous Version | Graphics & Text | Print | Product List | Glossary On
Versions: 1 2 3 4 5 6 7 8 9 10 11 12 13 14 15 16 17 18 19 20 21 22 23 24 25 26 27 28 29 30 31 32 33 34 35 36 37 38 39 40 41 42 43 44 45 46 47 48 49 50
014
ASUS43 KOAX 250602
RWRNE

WEATHER ROUNDUP FOR NEBRASKA
NATIONAL WEATHER SERVICE OMAHA NE
1200 AM CST SUN FEB 25 2018

NOTES: SATELLITE DATA IS BEING USED TO AUGMENT CLOUD COVER ABOVE
       12000 FEET.
       "FAIR" INDICATES FEW OR NO CLOUDS BELOW 12,000 FEET WITH NO
       SIGNIFICANT WEATHER AND/OR OBSTRUCTIONS TO VISIBILITY.


NEZ001>004-019>022-054>056-250700-
NEBRASKA PANHANDLE

CITY           SKY/WX    TMP DP  RH WIND       PRES   REMARKS
SCOTTSBLUFF    MOCLDY    27  12  53 W14       29.80F WCI  16
6HR MIN TEMP:  23; 6HR MAX TEMP:  31;

ALLIANCE       PTCLDY    11   5  77 W7        29.78S WCI   0
6HR MIN TEMP:   5; 6HR MAX TEMP:  26;

CHADRON        PTCLDY    14   4  64 E3        29.78S
6HR MIN TEMP:   7; 6HR MAX TEMP:  25;

GORDON         FAIR      18   6  60 W9        29.74S WCI   6
6HR MIN TEMP:  13; 6HR MAX TEMP:  27;

KIMBALL        CLOUDY    21   9  59 W12       29.82R WCI  10
SIDNEY         MOCLDY    21   9  59 W8        29.83F WCI  11
6HR MIN TEMP:  17; 6HR MAX TEMP:  30;

$$

NEZ057>060-069>072-079>082-250700-
SOUTHWEST NEBRASKA

CITY           SKY/WX    TMP DP  RH WIND       PRES   REMARKS
NORTH PLATTE   CLEAR      9   6  88 N5        29.86R WCI   1
6HR MIN TEMP:   8; 6HR MAX TEMP:  29;

IMPERIAL       PTCLDY    28  12  51 NW14      29.85R WCI  17
6HR MIN TEMP:  22; 6HR MAX TEMP:  33;

LEXINGTON      CLEAR     26  16  68 W9        29.86R WCI  16
MCCOOK         CLEAR     24  17  74 SW8       29.89R WCI  15
6HR MIN TEMP:  24; 6HR MAX TEMP:  36;

OGALLALA       CLEAR     21  13  72 W10       29.85R WCI   9
$$

NEZ005>010-023>029-035>040-094-250700-
NORTH CENTRAL NEBRASKA

CITY           SKY/WX    TMP DP  RH WIND       PRES   REMARKS
VALENTINE      CLEAR     12   6  77 SW3       29.76S
6HR MIN TEMP:  12; 6HR MAX TEMP:  25;

AINSWORTH      CLEAR     16  11  78 W12       29.76S WCI   3
BROKEN BOW     CLEAR     14   6  70 W9        29.83R WCI   2
6HR MIN TEMP:  13; 6HR MAX TEMP:  30;

O`NEILL        CLEAR     18  12  75 W9        29.77R WCI   7
ORD            CLEAR     22  13  68 W14       29.82R WCI   9
6HR MIN TEMP:  21; 6HR MAX TEMP:  30;

THEDFORD       CLEAR     14   8  78 W5        29.81R WCI   6
$$

NEZ041-046>049-061>064-073>077-083>087-250700-
SOUTH CENTRAL NEBRASKA

CITY           SKY/WX    TMP DP  RH WIND       PRES   REMARKS
GRAND ISLAND   CLEAR     23  15  71 W8        29.86S WCI  14
6HR MIN TEMP:  23; 6HR MAX TEMP:  35;

AURORA         CLEAR     20  14  77 W10       29.86S WCI   9
HASTINGS       CLEAR     22  14  71 SW8       29.87S WCI  12
6HR MIN TEMP:  22; 6HR MAX TEMP:  35;

HEBRON         CLEAR     28  19  71 W7        29.91R WCI  20
HOLDREGE       CLEAR     24  15  68 W8        29.86S WCI  15
KEARNEY        CLEAR     27  16  63 W9        29.87R WCI  18
YORK           CLEAR     23  18  80 W10       29.86S WCI  12
$$

NEZ011>018-030>034-042>045-250700-
NORTHEAST NEBRASKA

CITY           SKY/WX    TMP DP  RH WIND       PRES   REMARKS
NORFOLK        CLEAR     22  12  65 W14       29.78R WCI   9
6HR MIN TEMP:  21; 6HR MAX TEMP:  30;

ALBION         CLEAR     24  14  65 W7        29.82R WCI  16
BLAIR          CLEAR     26  20  79 W8        29.82R WCI  17
COLUMBUS       CLEAR     23  15  71 W10       29.85R WCI  12
FREMONT        CLEAR     26  19  74 W14       29.84R WCI  14
TEKAMAH        CLEAR     20  16  84 W7        29.82R WCI  11
6HR MIN TEMP:  19; 6HR MAX TEMP:  28;

WAYNE          CLEAR     20  13  73 W14G20    29.78R WCI   7
$$

NEZ050>053-065>068-078-088>093-250700-
SOUTHEAST NEBRASKA

CITY           SKY/WX    TMP DP  RH WIND       PRES   REMARKS
LINCOLN        CLEAR     26  19  74 W9        29.89R WCI  17
6HR MIN TEMP:  25; 6HR MAX TEMP:  32;

OMAHA EPPLEY   CLEAR     27  20  75 W12G25    29.84R WCI  17
6HR MIN TEMP:  27; 6HR MAX TEMP:  30;

BEATRICE       CLEAR     29  23  77 W9        29.89S WCI  20
FALLS CITY     CLEAR     31  24  75 W14       29.90R WCI  21
6HR MIN TEMP:  30; 6HR MAX TEMP:  32;

NEBRASKA CITY  CLEAR     29  25  85 W12       29.87R WCI  19
PLATTSMOUTH    CLEAR     28  23  81 W14G20    29.84R WCI  17
$$

NEZ044-045-051>053-067-250700-
OMAHA AREA

CITY           SKY/WX    TMP DP  RH WIND       PRES   REMARKS
OMAHA EPPLEY   CLEAR     27  20  75 W12G25    29.84R WCI  17
6HR MIN TEMP:  27; 6HR MAX TEMP:  30;

BLAIR          CLEAR     26  20  79 W8        29.82R WCI  17
FREMONT        CLEAR     26  19  74 W14       29.84R WCI  14
MILLARD        CLEAR     29  22  76 W9        29.84R WCI  20
OFFUTT AFB     CLEAR     27  22  81 W10       29.84R WCI  17
PLATTSMOUTH    CLEAR     28  23  81 W14G20    29.84R WCI  17
WAHOO          FAIR      26  17  70 W13       29.85R WCI  15
$$




USA.gov is the U.S. government's official web portal to all federal, state and local government web resources and services.